Terminal Aerodrome Forecast
Issued by NWS Amarillo, TX

Home | Current Version | Previous Version | Text Only | Print | Product List | Glossary On
Versions: 1 2 3 4 5 6 7 8 9 10 11 12 13 14 15 16 17 18 19
000
FTUS44 KAMA 180900 AAB
TAFDHT
TAF AMD
KDHT 180901Z 1809/1906 19008KT 5SM BR FEW015
     FM181500 20016G26KT P6SM SKC
     FM190200 18016KT P6SM SCT200=

USA.gov is the U.S. government's official web portal to all federal, state and local government web resources and services.